Elkins, WV

12:40 AM EDT on June 27, 2017 (GMT -0400)
Elkins-Randolph County

Weather History for KEKN - December, 2012

Change the Weather History Date:

Thursday, December 27, 2012

  Actual Average Record
Temperature  
Mean Temperature 30 °F 30 °F  
Max Temperature 35 °F 40 °F 73 °F (2015)
Min Temperature 25 °F 20 °F -13 °F (1989)
Degree Days  
Heating Degree Days 35 35  
Month to date heating degree days 693 868  
Since 1 July heating degree days 2108 2152  
Cooling Degree Days 0 0  
Month to date cooling degree days 0 0  
Year to date cooling degree days 675 475  
Moisture  
Dew Point 24 °F    
Average Humidity 84    
Maximum Humidity 92    
Minimum Humidity 75    
Precipitation  
Precipitation 0.09 in 0.10 in 0.91 in (1944)
Month to date precipitation 4.09 2.87  
Year to date precipitation 46.20 45.54  
Snow  
Snow 0.60 in - - ()
Month to date snowfall 5.4  
Since 1 September snowfall 23.8  
Snow Depth 1.00 in    
Sea Level Pressure  
Sea Level Pressure 29.86 in    
Wind  
Wind Speed 10 mph (WNW)    
Max Wind Speed 26 mph    
Max Gust Speed 43 mph    
Visibility 5 miles    
Events Rain , Snow    
T = Trace of Precipitation, MM = Missing Value Source: NWS Daily Summary

Daily Weather History Graph

Daily Weather History Graph

Search for Another Location

Airport or City:

Trip Planner

Search our weather history database for the weather conditions in past years. The results will help you decide how hot, cold, wet, or windy it might be!

Date:

Astronomy

Dec. 27, 2012 Rise Set
Actual Time 7:37 AM EST 5:04 PM EST
Civil Twilight 7:07 AM EST 5:34 PM EST
Nautical Twilight 6:33 AM EST 6:08 PM EST
Astronomical Twilight 6:01 AM EST 6:40 PM EST
Moon 4:46 PM EST 6:47 AM EST
Length of Visible Light 10h 27m
Length of Day
9h 27m
Full, 100% of the Moon is Illuminated
Dec 27
Full
Dec 28
Full
Jan 4
Last Quarter
Jan 11
New
Jan 18
First Quarter

Hourly Weather History & Observations

Time (EST) Temp. Windchill Dew Point Humidity Pressure Visibility Wind Dir Wind Speed Gust Speed Precip Events Conditions
12:51 AM 35.1 °F - 30.9 °F 85% 29.62 in 10.0 mi Calm Calm - 0.02 in   Overcast
1:15 AM 35.6 °F 28.6 °F 30.2 °F 81% 29.58 in 6.0 mi WNW 9.2 mph 19.6 mph 0.00 in Snow Light Snow
1:29 AM 33.8 °F 22.8 °F 30.2 °F 87% 29.60 in 1.8 mi West 18.4 mph 26.5 mph 0.00 in Snow Light Snow
1:38 AM 33.8 °F 24.3 °F 28.4 °F 81% 29.61 in 1.5 mi WNW 13.8 mph 25.3 mph 0.00 in Snow Light Snow
1:51 AM 33.1 °F 23.0 °F 28.9 °F 85% 29.67 in 1.5 mi WNW 15.0 mph 19.6 mph 0.01 in Snow Light Snow
2:18 AM 32.0 °F 22.1 °F 28.4 °F 87% 29.65 in 2.0 mi West 13.8 mph - 0.00 in Snow Light Snow
2:28 AM 32.0 °F 21.2 °F 26.6 °F 80% 29.65 in 4.0 mi WNW 16.1 mph 21.9 mph 0.00 in Snow Light Snow
2:42 AM 32.0 °F 26.4 °F 28.4 °F 87% 29.66 in 2.5 mi Variable 5.8 mph 19.6 mph 0.00 in Snow Light Snow
2:51 AM 30.9 °F 26.2 °F 28.0 °F 89% 29.72 in 1.5 mi Variable 4.6 mph - 0.01 in Snow Light Snow
2:58 AM 30.2 °F 20.2 °F 26.6 °F 86% 29.67 in 1.8 mi WSW 12.7 mph 25.3 mph 0.00 in Snow Light Snow
3:05 AM 30.2 °F 18.5 °F 26.6 °F 86% 29.68 in 2.5 mi West 17.3 mph 28.8 mph 0.00 in Snow Light Snow
3:12 AM 30.2 °F 20.2 °F 26.6 °F 86% 29.68 in 4.0 mi West 12.7 mph 28.8 mph 0.00 in   Overcast
3:20 AM 30.2 °F 19.3 °F 26.6 °F 86% 29.68 in 6.0 mi West 15.0 mph 21.9 mph 0.00 in   Overcast
3:30 AM 30.2 °F 17.8 °F 26.6 °F 86% 29.69 in 5.0 mi WNW 19.6 mph 26.5 mph 0.00 in Rain Light Freezing Rain
3:51 AM 30.0 °F 21.1 °F 25.0 °F 82% 29.76 in 1.8 mi West 10.4 mph 21.9 mph 0.00 in Snow Light Snow
3:57 AM 30.2 °F 24.3 °F 26.6 °F 86% 29.70 in 0.8 mi WSW 5.8 mph - 0.00 in Snow Light Snow
4:09 AM 28.4 °F 22.2 °F 26.6 °F 93% 29.71 in 0.8 mi West 5.8 mph - 0.02 in Snow Light Snow
4:13 AM 28.4 °F 24.6 °F 26.6 °F 93% 29.71 in 1.0 mi Variable 3.5 mph - 0.02 in Snow Light Snow
4:22 AM 30.2 °F 20.8 °F 24.8 °F 80% 29.71 in 2.0 mi West 11.5 mph 23.0 mph 0.02 in Snow Light Snow
4:41 AM 28.4 °F 18.5 °F 24.8 °F 86% 29.73 in 3.0 mi West 11.5 mph 27.6 mph 0.02 in Snow Light Snow
4:51 AM 28.9 °F 17.7 °F 24.1 °F 82% 29.79 in 5.0 mi WNW 15.0 mph 26.5 mph 0.03 in Snow Light Snow
5:01 AM 28.4 °F 18.0 °F 24.8 °F 86% 29.74 in 5.0 mi West 12.7 mph 21.9 mph 0.00 in   Overcast
5:36 AM 28.4 °F 18.5 °F 24.8 °F 86% 29.76 in 4.0 mi WNW 11.5 mph 26.5 mph 0.00 in Snow Light Snow
5:51 AM 28.0 °F 20.8 °F 24.1 °F 85% 29.84 in 3.0 mi Variable 6.9 mph - 0.01 in Snow Light Snow
6:05 AM 28.4 °F 19.1 °F 24.8 °F 86% 29.78 in 2.5 mi WNW 10.4 mph 21.9 mph 0.00 in Snow Light Snow
6:12 AM 28.4 °F 18.0 °F 23.0 °F 80% 29.78 in 3.0 mi WNW 12.7 mph 28.8 mph 0.00 in Snow Light Snow
6:39 AM 28.4 °F 19.7 °F 23.0 °F 80% 29.80 in 6.0 mi WSW 9.2 mph 32.2 mph 0.00 in Rain Light Freezing Rain
6:51 AM 28.0 °F 12.8 °F 23.0 °F 81% 29.88 in 5.0 mi NNE 27.6 mph 41.4 mph 0.00 in Rain Light Freezing Rain
7:03 AM 26.6 °F - 21.2 °F 80% 29.82 in 5.0 mi North - - 0.00 in Rain Light Freezing Rain
7:24 AM 26.6 °F - 21.2 °F 80% 29.84 in 6.0 mi North - - 0.00 in Rain Light Freezing Rain
7:41 AM 26.6 °F - 21.2 °F 80% 29.85 in 7.0 mi North - - 0.00 in   Overcast
7:51 AM 27.0 °F 15.6 °F 21.9 °F 81% 29.92 in 6.0 mi NE 13.8 mph 62.1 mph 0.00 in   Overcast
7:59 AM 26.6 °F - 21.2 °F 80% 29.86 in 4.0 mi North - - 0.00 in   Overcast
8:32 AM 26.6 °F - 21.2 °F 80% 29.88 in 5.0 mi Calm Calm - 0.00 in Rain Light Freezing Rain
8:49 AM 26.6 °F - 21.2 °F 80% 29.89 in 5.0 mi North - - 0.00 in   Overcast
8:51 AM 26.1 °F - 21.9 °F 84% 29.97 in 5.0 mi North - - 0.00 in   Overcast
9:08 AM 26.6 °F - 21.2 °F 80% 29.90 in 4.0 mi North - - 0.00 in   Overcast
9:11 AM 26.6 °F - 21.2 °F 80% 29.90 in 4.0 mi WNW 151.9 mph 169.2 mph N/A   Overcast
9:21 AM 26.6 °F - 21.2 °F 80% 29.91 in 3.0 mi WNW 161.1 mph 170.3 mph 0.00 in Rain Light Freezing Rain
9:24 AM 26.6 °F - 21.2 °F 80% 29.91 in 3.0 mi WNW 164.6 mph 170.3 mph 0.00 in Snow Light Snow
9:51 AM 26.1 °F - 21.9 °F 84% 30.01 in 4.0 mi North - - 0.00 in Snow Light Snow
10:51 AM 26.1 °F - 21.9 °F 84% 30.03 in 4.0 mi North - - 0.00 in Snow Light Snow
11:02 AM 26.6 °F - 21.2 °F 80% 29.95 in 2.5 mi North - - 0.01 in Snow Light Snow
11:32 AM 26.6 °F - 21.2 °F 80% 29.95 in 5.0 mi North - - 0.01 in   Overcast
11:51 AM 26.1 °F - 21.0 °F 81% 30.02 in 4.0 mi North - - 0.01 in Snow Light Snow
12:51 PM 26.6 °F 19.1 °F 19.4 °F 74% 29.94 in 8.0 mi West 6.9 mph - N/A   Overcast
1:44 PM 26.6 °F 19.1 °F 19.4 °F 74% 29.95 in 9.0 mi Variable 6.9 mph 19.6 mph 0.00 in   Overcast
1:51 PM 26.1 °F 18.4 °F 19.9 °F 78% 30.02 in 10.0 mi WNW 6.9 mph - 0.00 in   Overcast
2:51 PM 26.1 °F 17.6 °F 21.0 °F 81% 30.04 in 9.0 mi West 8.1 mph - 0.00 in   Overcast
3:51 PM 26.1 °F 18.4 °F 21.0 °F 81% 30.06 in 9.0 mi Variable 6.9 mph 18.4 mph N/A   Overcast
4:51 PM 26.1 °F 18.4 °F 21.9 °F 84% 30.09 in 7.0 mi Variable 6.9 mph - N/A   Overcast
5:51 PM 27.0 °F 20.5 °F 21.9 °F 81% 30.11 in 8.0 mi WNW 5.8 mph - N/A   Overcast
6:51 PM 27.0 °F 16.7 °F 21.9 °F 81% 30.12 in 9.0 mi WNW 11.5 mph - N/A   Overcast
7:51 PM 27.0 °F 17.3 °F 21.9 °F 81% 30.14 in 10.0 mi West 10.4 mph 19.6 mph 0.00 in   Overcast
8:20 PM 26.6 °F 16.2 °F 21.2 °F 80% 30.06 in 10.0 mi WNW 11.5 mph - N/A   Overcast
8:51 PM 27.0 °F 18.0 °F 23.0 °F 85% 30.15 in 10.0 mi West 9.2 mph - N/A   Overcast
9:51 PM 27.0 °F 16.1 °F 23.0 °F 85% 30.15 in 10.0 mi West 12.7 mph 16.1 mph N/A   Overcast
10:51 PM 27.0 °F 19.5 °F 23.0 °F 85% 30.15 in 10.0 mi NW 6.9 mph - N/A   Overcast
11:51 PM 27.0 °F 20.5 °F 23.0 °F 85% 30.16 in 10.0 mi West 5.8 mph - N/A   Overcast